Location: ????
(31.1597°N, 45.6975°E)
Time: 15:36:30
(UTC+00:00)

Daily predictions for brighter satellites

Satellite Brightness Start Highest point End
(mag) Time Altitude Azimuth Time Altitude Azimuth Time Altitude Azimuth
Cosmos 1709 Rocket 4.0 15:36:04 10° N 15:42:12 78° E 15:48:17 10° S
STARLINK-1114 3.6 15:40:28 10° NW 15:44:37 77° NE 15:48:44 10° SE
Cosmos 2369 Rocket 2.6 15:40:14 10° N 15:45:37 44° ENE 15:50:57 10° SE
Ariane Rocket 4.0 15:42:12 10° SE 15:46:20 26° ENE 15:50:29 10° NNE
SeaSat 1 3.0 15:42:22 10° NNE 15:47:14 65° WNW 15:52:06 10° SW
Aureole 2 Rocket 2.4 15:44:57 10° N 15:48:16 53° ENE 15:51:28 10° SSE
Meteor 2-15 Rocket 4.4 15:43:10 10° S 15:49:13 85° E 15:55:19 10° N
STARLINK-1130 (DARKSAT) 3.6 15:45:25 10° NW 15:49:34 87° NE 15:53:42 10° SE
HJ-1C 3.9 15:51:09 10° SSE 15:54:18 40° ENE 15:57:28 10° N
STARLINK-1084 3.7 15:50:25 10° NW 15:54:33 84° SW 15:58:41 10° SE
CZ-3 Stage 3 3.5 15:51:00 10° WSW 15:56:05 79° SSE 16:24:00 10° E
Hubble Space Telescope 1.5 15:52:32 10° SW 15:56:21 37° SSE 15:59:52 12° E
Cosmos 1758 Rocket 4.4 15:52:50 10° NNE 15:56:35 28° E 16:00:18 10° SE
Cosmos 614 Rocket 4.1 15:51:34 10° S 15:56:36 52° ESE 16:01:40 10° NNE
Delta 128 4.2 15:52:35 10° W 15:56:54 47° S 16:01:23 11° ESE
Cosmos 1606 Rocket 4.1 15:52:55 10° SSE 15:56:59 37° E 16:01:05 10° NNE
CSL-04 Rocket 3.7 15:53:47 10° SSE 15:59:05 87° W 16:04:22 10° NNW
STARLINK-1098 3.8 15:55:24 10° NW 15:59:32 74° SW 16:03:38 10° SE
USA 186 3.4 15:57:52 11° ESE 16:00:02 18° ENE 16:02:20 10° NNE
Cosmos 1340 Rocket 4.1 15:58:31 10° SE 16:01:29 20° E 16:04:28 10° NE
Centaur D AC-28 4.0 16:00:15 10° WSW 16:01:58 12° SSW 16:03:36 10° S
Cosmos 1943 4.1 15:57:42 10° SW 16:03:12 55° WNW 16:08:46 10° N
STARLINK-1123 3.9 16:00:23 10° NW 16:04:29 65° SW 16:08:34 10° SSE
Meteor 2-10 4.1 16:02:23 10° S 16:07:46 86° E 16:13:23 10° N
Cosmos 1908 3.7 16:05:28 10° SSE 16:09:01 37° E 16:12:37 10° NNE
STARLINK-1097 4.1 16:05:23 10° NW 16:09:27 57° SW 16:13:29 10° SSE
IRIDIUM 114 4.4 16:06:52 10° N 16:12:00 56° E 16:17:06 10° SSE
Cosmos 2263 4.3 16:06:57 10° N 16:12:25 53° ENE 16:17:52 10° SE
ARGOS Delta rocket 4.1 16:08:48 10° SSE 16:13:59 70° ENE 16:19:22 10° N
Cosmos 1656 Rocket 4.4 16:09:05 10° N 16:14:10 34° ENE 16:17:54 16° ESE
STARLINK-1099 4.4 16:10:25 10° NW 16:14:25 50° SW 16:18:25 10° SSE
Cosmos 1726 2.5 16:12:13 10° SSW 16:15:54 68° W 16:19:37 10° N
IRIDIUM 103 4.2 16:15:59 10° N 16:21:11 71° E 16:26:22 10° S
SL-8 R/B 4.0 16:17:03 10° NW 16:21:43 53° NE 16:24:36 22° ESE
CZ-4 R/B 4.1 16:19:01 10° SW 16:21:54 20° W 16:24:48 10° NW
ARGOS 3.5 16:16:58 10° SE 16:22:02 44° ENE 16:27:06 10° N
Cosmos 407 Rocket 3.4 16:17:24 10° S 16:22:33 79° ESE 16:27:40 10° NNE
IRS-1A Rocket 4.4 16:18:13 10° SSE 16:23:46 61° ENE 16:29:28 10° N
CZ-2C R/B 3.5 16:20:16 10° NE 16:24:34 26° E 16:27:31 16° SE
Cosmos 676 Rocket 4.5 16:19:58 10° SSE 16:24:48 37° E 16:29:36 10° NE
BREEZE M DEB (TANK) 2.0 16:22:55 10° SW 16:25:11 68° NW 16:29:26 10° NE
Cosmos 1953 4.3 16:24:19 10° SW 16:27:51 32° W 16:31:27 10° NNW
Cosmos 1992 Rocket 4.4 16:26:10 10° NNW 16:31:19 64° WSW 16:36:26 10° S
GEOS 3 Rocket 3.7 16:29:25 21° SE 16:32:42 57° NE 16:37:46 10° NNW
SPOT 3 Rocket 4.4 16:32:20 24° ESE 16:34:12 31° ENE 16:38:44 10° N
SEDSat Delta rocket 3.5 16:36:38 10° W 16:41:48 57° SSW 16:43:45 33° SE
COSMOS 2455 4.2 16:37:42 10° N 16:42:02 20° NE 16:43:12 19° ENE
Cosmos 1023 Rocket 4.5 16:39:55 10° SSW 16:45:06 84° WNW 16:50:16 10° NNE
NOSS 3-4 (A) 4.4 16:40:02 10° NNW 16:46:54 43° NE 16:50:18 29° ESE
NOSS 3-4 (C) 4.4 16:40:10 10° NNW 16:47:01 43° NE 16:50:22 29° ESE
CZ-2C R/B 3.6 16:42:22 10° NNE 16:47:02 76° ESE 16:51:34 10° S
Cosmos 1954 Rocket 3.9 16:42:01 10° S 16:47:10 60° ESE 16:52:19 10° NNE
SL-08 RB Rocket 3.8 16:46:35 35° SE 16:48:16 56° ENE 16:52:45 10° N
MONITOR-E 4.2 16:50:36 60° NW 16:50:36 60° NW 16:52:55 10° NNW
ISS -1.6 16:52:02 10° WNW 16:54:36 20° SW 16:55:52 17° SSW
ATLAS 5 CENTAUR R/B 3.5 16:52:39 10° WSW 16:56:10 28° NW 16:59:55 10° N
Cosmos 2341 Rocket 4.5 16:52:23 10° NNE 16:58:18 38° E 16:59:13 36° E
MOS 1 Rocket 3.6 16:52:57 10° NNE 16:58:21 63° E 17:02:51 15° S
Cosmos 2058 Rocket 3.2 16:54:22 10° S 16:58:51 79° W 17:03:22 10° N
BREEZE-M DEB (TANK) 4.0 16:52:48 10° SW 17:01:21 72° NW 17:03:08 28° NE
Cosmos 2184 Rocket 4.4 16:55:41 10° NNW 17:01:51 63° W 17:07:55 10° S
H-2A R/B 2.9 17:04:28 10° S 17:09:32 48° W 17:14:29 10° NNW
SJ-6B 3.4 17:09:17 37° SSW 17:10:40 59° W 17:14:45 10° NNW
Meteor 2-17 Rocket 4.4 17:05:06 10° N 17:11:17 87° W 17:14:57 26° S
USA 234 3.1 17:07:27 10° NE 17:14:00 80° SE 17:20:33 10° SW
Resurs 01 Rocket 2.8 17:16:46 31° NNE 17:16:46 31° NNE 17:19:27 10° N
CZ-2C R/B 4.0 17:13:50 13° SSW 17:18:02 41° W 17:22:33 10° NNW
Cosmos 2181 Rocket 3.9 17:17:22 52° SE 17:18:31 61° E 17:24:37 10° NNE
ATLAS 2AS CENTAUR R/B 2.6 17:11:51 10° NNW 17:19:12 75° ENE 17:20:57 53° SE
GPS 2-04 Rocket1 3.5 17:16:12 10° WSW 17:19:08 46° WSW 17:19:08 46° WSW
Cosmos 921 Rocket 4.0 17:17:51 10° N 17:20:28 35° NNE 17:20:28 35° NNE
Cosmos 962 Rocket 4.3 17:16:42 10° N 17:22:48 70° E 17:23:36 62° SE
Cosmos 1300 4.2 17:25:34 31° N 17:25:34 31° N 17:27:41 10° N
Cosmos 2154 Rocket 4.3 17:18:25 10° NNW 17:24:41 66° W 17:28:44 23° S
SL-8 Rocket 4.4 17:19:48 10° N 17:25:12 45° ENE 17:25:12 45° ENE
Cosmos 1461 3.8 17:21:51 10° NNW 17:25:20 45° NNE 17:25:20 45° NNE
Hubble Space Telescope 2.6 17:33:16 10° WSW 17:35:12 26° WSW 17:35:12 26° WSW
CZ-2C R/B 4.4 18:00:21 10° NNW 18:04:44 29° WNW 18:09:04 10° SW
COSMOS 2455 4.0 18:22:24 10° NW 18:26:22 39° WNW 18:26:22 39° WNW
ATLAS 5 CENTAUR R/B 4.0 18:41:11 10° WSW 19:23:13 17° ESE 19:37:18 10° ESE
Cosmos 2227 Rocket 4.4 23:06:13 21° NNE 23:06:13 21° NNE 23:07:57 10° NNE
ATLAS 3B R/B 3.8 23:20:36 35° E 23:20:36 35° E 23:25:26 10° NE
USA 267 3.8 23:22:20 10° NE 23:27:08 53° NE 23:27:08 53° NE
SL-16 R/B 3.9 23:39:50 10° N 23:44:44 29° ENE 23:49:36 10° ESE
